• In Hungary
  • List of Countries
  • For 7 days
  • Water Temperature
  • Satellite Maps
  • Weather Map
  • News
  • Weather Widgets
  • user-avatar
    Login

    Hourly Weather Agadir

    Today, 26 September, Wednesday

    Time Temperature Precipitation Wind Pressure Humidity
    00:00 +33°C° 0.1 mm 3 mps 762 mmHg 33%
    01:00 +33°C° 0.1 mm 3 mps 762 mmHg 33%
    02:00 +33°C° 0.1 mm 3 mps 762 mmHg 33%
    03:00 +31°C° 0.1 mm 3 mps 762 mmHg 34%
    04:00 +31°C° 0.1 mm 3 mps 762 mmHg 34%
    05:00 +31°C° 0.1 mm 3 mps 762 mmHg 35%
    06:00 +33°C° 0.4 mm 3 mps 762 mmHg 33%
    07:00 +34°C° 0.4 mm 3 mps 763 mmHg 30%
    08:00 +35°C° 0.4 mm 3 mps 763 mmHg 28%
    09:00 +36°C° 0.2 mm 3 mps 763 mmHg 26%
    10:00 +37°C° 0.2 mm 3 mps 763 mmHg 24%
    11:00 +38°C° 0.2 mm 3 mps 763 mmHg 23%
    12:00 +38°C° 0.2 mm 3 mps 763 mmHg 23%
    13:00 +38°C° 0.2 mm 3 mps 762 mmHg 23%
    14:00 +38°C° 0.2 mm 3 mps 762 mmHg 23%
    15:00 +37°C° 0 mm 3 mps 762 mmHg 24%
    16:00 +37°C° 0 mm 3 mps 762 mmHg 25%
    17:00 +36°C° 0 mm 3 mps 762 mmHg 27%
    18:00 +36°C° 0.2 mm 3 mps 763 mmHg 28%
    19:00 +35°C° 0.2 mm 3 mps 763 mmHg 29%
    20:00 +34°C° 0.2 mm 3 mps 763 mmHg 30%
    21:00 +34°C° 0.3 mm 2 mps 763 mmHg 31%
    22:00 +32°C° 0.3 mm 2 mps 763 mmHg 32%
    23:00 +32°C° 0.3 mm 2 mps 763 mmHg 33%

    Tomorrow, 27 September, Thursday

    Time Temperature Precipitation Wind Pressure Humidity
    00:00 +31°C° 0.3 mm 2 mps 763 mmHg 34%
    01:00 +31°C° 0.3 mm 3 mps 763 mmHg 35%
    02:00 +31°C° 0.3 mm 3 mps 762 mmHg 36%
    03:00 +30°C° 0.3 mm 2 mps 762 mmHg 37%
    04:00 +30°C° 0.3 mm 2 mps 762 mmHg 38%
    05:00 +30°C° 0.3 mm 2 mps 762 mmHg 39%
    06:00 +31°C° 0.3 mm 2 mps 763 mmHg 35%
    07:00 +32°C° 0.3 mm 2 mps 763 mmHg 32%
    08:00 +35°C° 0.3 mm 2 mps 763 mmHg 29%
    09:00 +36°C° 0.3 mm 2 mps 763 mmHg 27%
    10:00 +37°C° 0.3 mm 2 mps 763 mmHg 25%
    11:00 +38°C° 0.3 mm 2 mps 763 mmHg 23%
    12:00 +38°C° 0 mm 3 mps 763 mmHg 24%
    13:00 +38°C° 0 mm 4 mps 762 mmHg 24%
    14:00 +38°C° 0 mm 4 mps 762 mmHg 24%
    15:00 +37°C° 0 mm 4 mps 762 mmHg 27%
    16:00 +37°C° 0 mm 4 mps 762 mmHg 29%
    17:00 +36°C° 0 mm 4 mps 762 mmHg 31%
    18:00 +35°C° 0 mm 3 mps 762 mmHg 34%
    19:00 +34°C° 0 mm 3 mps 763 mmHg 37%
    20:00 +34°C° 0 mm 3 mps 763 mmHg 40%
    21:00 +32°C° 0 mm 2 mps 763 mmHg 41%
    22:00 +32°C° 0 mm 2 mps 763 mmHg 42%
    23:00 +31°C° 0 mm 2 mps 762 mmHg 43%

    Day after tomorrow, 28 September, Friday

    Time Temperature Precipitation Wind Pressure Humidity
    00:00 +31°C° 0.6 mm 2 mps 762 mmHg 43%
    01:00 +30°C° 0.6 mm 2 mps 762 mmHg 43%
    02:00 +30°C° 0.6 mm 2 mps 761 mmHg 44%
    03:00 +30°C° 0 mm 2 mps 761 mmHg 43%
    04:00 +30°C° 0 mm 2 mps 761 mmHg 42%
    05:00 +29°C° 0 mm 2 mps 761 mmHg 41%
    06:00 +30°C° 0 mm 2 mps 761 mmHg 38%
    07:00 +33°C° 0 mm 3 mps 761 mmHg 36%
    08:00 +34°C° 0 mm 3 mps 762 mmHg 33%
    09:00 +35°C° 0 mm 3 mps 762 mmHg 31%
    10:00 +36°C° 0 mm 3 mps 762 mmHg 29%
    11:00 +36°C° 0 mm 3 mps 761 mmHg 27%
    12:00 +37°C° 0 mm 3 mps 761 mmHg 27%
    13:00 +37°C° 0 mm 4 mps 760 mmHg 27%
    14:00 +37°C° 0 mm 4 mps 760 mmHg 27%
    15:00 +36°C° 0 mm 4 mps 760 mmHg 29%
    16:00 +36°C° 0 mm 4 mps 760 mmHg 31%
    17:00 +35°C° 0 mm 4 mps 760 mmHg 33%
    18:00 +34°C° 0 mm 3 mps 760 mmHg 35%
    19:00 +33°C° 0 mm 3 mps 761 mmHg 37%
    20:00 +32°C° 0 mm 2 mps 761 mmHg 40%
    21:00 +31°C° 0 mm 2 mps 761 mmHg 41%
    22:00 +31°C° 0 mm 2 mps 761 mmHg 42%
    23:00 +31°C° 0 mm 2 mps 761 mmHg 43%

    29 September, Saturday

    Time Temperature Precipitation Wind Pressure Humidity
    00:00 +30°C° 0 mm 2 mps 760 mmHg 44%
    01:00 +30°C° 0 mm 2 mps 760 mmHg 44%
    02:00 +29°C° 0 mm 2 mps 759 mmHg 45%
    03:00 +29°C° 0 mm 2 mps 759 mmHg 45%
    04:00 +29°C° 0 mm 2 mps 759 mmHg 45%
    05:00 +28°C° 0 mm 2 mps 759 mmHg 46%
    06:00 +29°C° 0 mm 2 mps 760 mmHg 42%
    07:00 +30°C° 0 mm 2 mps 760 mmHg 39%
    08:00 +31°C° 0 mm 2 mps 760 mmHg 36%
    09:00 +32°C° 0 mm 2 mps 760 mmHg 34%
    10:00 +34°C° 0 mm 3 mps 760 mmHg 32%
    11:00 +35°C° 0 mm 3 mps 760 mmHg 30%
    12:00 +35°C° 0 mm 3 mps 760 mmHg 32%
    13:00 +35°C° 0 mm 4 mps 760 mmHg 33%
    14:00 +35°C° 0 mm 4 mps 759 mmHg 35%
    15:00 +34°C° 0.3 mm 4 mps 759 mmHg 38%
    16:00 +33°C° 0.3 mm 3 mps 760 mmHg 40%
    17:00 +33°C° 0.3 mm 3 mps 760 mmHg 43%
    18:00 +31°C° 0.2 mm 3 mps 760 mmHg 45%
    19:00 +30°C° 0.2 mm 3 mps 761 mmHg 47%
    20:00 +30°C° 0.2 mm 3 mps 761 mmHg 50%
    21:00 +30°C° 0.2 mm 3 mps 761 mmHg 48%
    22:00 +29°C° 0.2 mm 3 mps 761 mmHg 46%
    23:00 +29°C° 0.2 mm 4 mps 761 mmHg 44%

    30 September, Sunday

    Time Temperature Precipitation Wind Pressure Humidity
    00:00 +29°C° 0.1 mm 3 mps 760 mmHg 44%
    01:00 +29°C° 0.1 mm 3 mps 760 mmHg 43%
    02:00 +28°C° 0.1 mm 3 mps 760 mmHg 42%
    03:00 +28°C° 0.3 mm 3 mps 760 mmHg 42%
    04:00 +28°C° 0.3 mm 3 mps 760 mmHg 42%
    05:00 +27°C° 0.3 mm 3 mps 760 mmHg 43%
    06:00 +28°C° 0.1 mm 3 mps 761 mmHg 40%
    07:00 +29°C° 0.1 mm 4 mps 761 mmHg 37%
    08:00 +30°C° 0.1 mm 4 mps 761 mmHg 34%
    09:00 +32°C° 0 mm 4 mps 761 mmHg 32%
    10:00 +34°C° 0 mm 4 mps 761 mmHg 30%
    11:00 +35°C° 0 mm 4 mps 761 mmHg 28%
    12:00 +35°C° 0 mm 4 mps 760 mmHg 29%
    13:00 +35°C° 0 mm 4 mps 760 mmHg 30%
    14:00 +35°C° 0 mm 5 mps 760 mmHg 31%
    15:00 +35°C° 0 mm 4 mps 760 mmHg 34%
    16:00 +34°C° 0 mm 4 mps 760 mmHg 37%
    17:00 +33°C° 0 mm 4 mps 760 mmHg 40%
    18:00 +32°C° 0 mm 4 mps 760 mmHg 44%
    19:00 +31°C° 0 mm 3 mps 761 mmHg 47%
    20:00 +30°C° 0 mm 3 mps 761 mmHg 51%
    21:00 +29°C° 0 mm 3 mps 761 mmHg 50%
    22:00 +29°C° 0 mm 3 mps 761 mmHg 50%
    23:00 +29°C° 0 mm 2 mps 760 mmHg 49%

    1 October, Monday

    Time Temperature Precipitation Wind Pressure Humidity
    00:00 +28°C° 0 mm 3 mps 760 mmHg 47%
    01:00 +28°C° 0 mm 3 mps 760 mmHg 44%
    02:00 +28°C° 0 mm 3 mps 759 mmHg 41%
    03:00 +28°C° 0 mm 3 mps 759 mmHg 40%
    04:00 +27°C° 0 mm 3 mps 760 mmHg 39%
    05:00 +27°C° 0 mm 3 mps 760 mmHg 38%
    06:00 +29°C° 0 mm 3 mps 760 mmHg 35%
    07:00 +30°C° 0 mm 3 mps 760 mmHg 31%
    08:00 +31°C° 0 mm 3 mps 760 mmHg 28%
    09:00 +33°C° 0 mm 3 mps 760 mmHg 29%
    10:00 +33°C° 0 mm 3 mps 760 mmHg 29%
    11:00 +34°C° 0 mm 3 mps 760 mmHg 29%
    12:00 +35°C° 0 mm 3 mps 760 mmHg 29%
    13:00 +35°C° 0 mm 4 mps 759 mmHg 29%
    14:00 +36°C° 0 mm 4 mps 759 mmHg 28%
    15:00 +36°C° 0 mm 4 mps 759 mmHg 29%
    16:00 +35°C° 0 mm 4 mps 759 mmHg 30%
    17:00 +35°C° 0 mm 4 mps 759 mmHg 31%
    18:00 +34°C° 0 mm 4 mps 759 mmHg 32%
    19:00 +34°C° 0 mm 4 mps 759 mmHg 33%
    20:00 +33°C° 0 mm 4 mps 760 mmHg 34%
    21:00 +32°C° 0 mm 4 mps 760 mmHg 35%
    22:00 +31°C° 0 mm 3 mps 759 mmHg 35%
    23:00 +30°C° 0 mm 3 mps 759 mmHg 36%
    Show more